Location: Oberwangen
(47.4286°N, 8.9679°E)
Time: 19:46:23
(UTC+00:00)

Cosmos 1953 Rocket - Pass Details

Date: 24 October 2021
Orbit: 603 x 635 km, 82.5° (Epoch: 03 December)

Event Time Altitude Azimuth Distance (km) Brightness Sun altitude
Rises 18:20:11 0° 355° (N) 2,946 7.2 -21.0°
Reaches altitude 10° 18:22:31 10° 2° (N) 2,031 6.2 -21.3°
Enters shadow 18:25:26 34° 29° (NNE) 1,051 4.5 -21.8°
